Taunton, MA

8:01 AM EST on January 22, 2018 (GMT -0500)
Taunton Municipal

Weather History for KTAN - October, 2011

Change the Weather History Date:

Sunday, October 30, 2011

  Actual Average Record
Temperature  
Mean Temperature 36 °F -  
Max Temperature 46 °F 55 °F 75 °F (1950)
Min Temperature 27 °F 32 °F 22 °F (1962)
Degree Days  
Heating Degree Days 28    
Moisture  
Dew Point 31 °F    
Average Humidity 86    
Maximum Humidity 96    
Minimum Humidity 52    
Precipitation  
Precipitation 0.30 in - - ()
Sea Level Pressure  
Sea Level Pressure 29.84 in    
Wind  
Wind Speed 13 mph (NW)    
Max Wind Speed 18 mph    
Max Gust Speed 39 mph    
Visibility 6 miles    
Events Snow    
Averages and records for this station are not official NWS values.
T = Trace of Precipitation, MM = Missing Value Source: NWS Daily Summary

Daily Weather History Graph

Daily Weather History Graph

Search for Another Location

Airport or City:

Trip Planner

Search our weather history database for the weather conditions in past years. The results will help you decide how hot, cold, wet, or windy it might be!

Date:

Astronomy

Oct. 30, 2011 Rise Set
Actual Time 7:13 AM EDT 5:41 PM EDT
Civil Twilight 6:44 AM EDT 6:10 PM EDT
Nautical Twilight 6:12 AM EDT 6:42 PM EDT
Astronomical Twilight 5:39 AM EDT 7:15 PM EDT
Moon 11:32 AM EDT (10/30) 9:03 PM EDT (10/30)
Length of Visible Light 11h 25m
Length of Day
10h 27m
Waxing Crescent, 20% of the Moon is Illuminated
Oct 30
Waxing Crescent
Nov 2
First Quarter
Nov 10
Full
Nov 18
Last Quarter
Nov 25
New

Hourly Weather History & Observations

Time (EDT) Temp. Windchill Dew Point Humidity Pressure Visibility Wind Dir Wind Speed Gust Speed Precip Events Conditions
12:04 AM 33.8 °F 23.5 °F 32.0 °F 93% 29.63 in 3.0 mi North 16.1 mph 28.8 mph 0.01 in Snow Light Snow
12:11 AM 33.8 °F 24.8 °F 32.0 °F 93% 29.63 in 2.0 mi North 12.7 mph 24.2 mph 0.02 in Snow Light Snow
12:40 AM 33.8 °F 22.8 °F 32.0 °F 93% 29.64 in 1.5 mi NNW 18.4 mph 32.2 mph 0.06 in Snow Light Snow
12:52 AM 33.1 °F 23.0 °F 32.0 °F 96% 29.64 in 1.8 mi NNW 15.0 mph 28.8 mph 0.08 in Snow Light Snow
1:26 AM 33.8 °F 23.2 °F 32.0 °F 93% 29.61 in 1.2 mi North 17.3 mph 28.8 mph 0.04 in Snow Light Snow
1:39 AM 33.8 °F 23.2 °F 32.0 °F 93% 29.62 in 1.5 mi NNW 17.3 mph 34.5 mph 0.06 in Snow Light Snow
1:52 AM 33.1 °F 22.2 °F 32.0 °F 96% 29.61 in 1.2 mi NNW 17.3 mph 29.9 mph 0.07 in Snow Light Snow
2:01 AM 33.8 °F 23.5 °F 32.0 °F 93% 29.61 in 1.0 mi NNW 16.1 mph 32.2 mph 0.01 in Snow Light Snow
2:52 AM 33.1 °F 22.2 °F 32.0 °F 96% 29.63 in 1.5 mi NNW 17.3 mph 31.1 mph 0.07 in Snow Light Snow
3:03 AM 33.8 °F 23.2 °F 32.0 °F 93% 29.64 in 2.0 mi NNW 17.3 mph 39.1 mph 0.02 in Snow Light Snow
3:26 AM 33.8 °F 23.5 °F 32.0 °F 93% 29.66 in 1.5 mi NNW 16.1 mph 29.9 mph 0.06 in Snow Light Snow
3:43 AM 33.8 °F 24.8 °F 32.0 °F 93% 29.66 in 1.5 mi NNW 12.7 mph 25.3 mph 0.09 in Snow Light Snow
4:13 AM 33.8 °F 24.8 °F 32.0 °F 93% 29.66 in 1.5 mi NNW 12.7 mph 23.0 mph 0.03 in Snow Light Snow
4:20 AM 33.8 °F 25.3 °F 32.0 °F 93% 29.67 in 1.2 mi NW 11.5 mph - 0.04 in Snow Light Snow
4:35 AM 33.8 °F 25.3 °F 32.0 °F 93% 29.67 in 1.8 mi NW 11.5 mph 21.9 mph 0.05 in Snow Light Snow
4:44 AM 33.8 °F 24.8 °F 32.0 °F 93% 29.68 in 2.0 mi NW 12.7 mph 25.3 mph 0.05 in Snow Light Snow
4:52 AM 33.1 °F 23.0 °F 32.0 °F 96% 29.68 in 1.8 mi NW 15.0 mph 25.3 mph 0.06 in Snow Light Snow
5:11 AM 33.8 °F 24.8 °F 32.0 °F 93% 29.69 in 2.0 mi NW 12.7 mph 25.3 mph 0.01 in Snow Light Snow
5:27 AM 33.8 °F 23.9 °F 32.0 °F 93% 29.70 in 3.0 mi NW 15.0 mph 26.5 mph 0.01 in Snow Light Snow
5:52 AM 33.1 °F 23.9 °F 32.0 °F 96% 29.72 in 5.0 mi NW 12.7 mph 25.3 mph 0.02 in Snow Light Snow
6:16 AM 33.8 °F 24.8 °F 32.0 °F 93% 29.72 in 9.0 mi NW 12.7 mph 26.5 mph 0.00 in Snow Light Snow
6:52 AM 34.0 °F 25.5 °F 32.0 °F 92% 29.75 in 10.0 mi NW 11.5 mph 25.3 mph 0.00 in   Overcast
7:14 AM 33.8 °F 24.8 °F 32.0 °F 93% 29.77 in 10.0 mi NW 12.7 mph 21.9 mph N/A   Scattered Clouds
7:52 AM 35.1 °F 25.9 °F 32.0 °F 89% 29.81 in 10.0 mi NW 13.8 mph 26.5 mph N/A   Overcast
8:16 AM 35.6 °F 27.5 °F 32.0 °F 87% 29.83 in 10.0 mi NW 11.5 mph 21.9 mph N/A   Mostly Cloudy
8:27 AM 35.6 °F 29.2 °F 32.0 °F 87% 29.84 in 10.0 mi NW 8.1 mph 21.9 mph N/A   Scattered Clouds
8:52 AM 36.0 °F 28.5 °F 32.0 °F 86% 29.86 in 10.0 mi NNW 10.4 mph 21.9 mph N/A   Partly Cloudy
10:52 AM 41.0 °F 32.8 °F 32.0 °F 70% 29.93 in 10.0 mi NW 16.1 mph 26.5 mph N/A   Partly Cloudy
11:52 AM 43.0 °F 34.8 °F 32.0 °F 65% 29.97 in 10.0 mi NW 18.4 mph 31.1 mph N/A   Partly Cloudy
12:52 PM 44.1 °F 37.1 °F 30.9 °F 60% 29.99 in 10.0 mi NW 15.0 mph 32.2 mph N/A   Scattered Clouds
1:52 PM 46.9 °F - 30.9 °F 54% 30.01 in 10.0 mi NW 12.7 mph 21.9 mph N/A   Scattered Clouds
2:52 PM 45.0 °F 38.5 °F 28.9 °F 53% 30.04 in 10.0 mi NNW 13.8 mph 24.2 mph N/A   Partly Cloudy
3:52 PM 45.0 °F 39.7 °F 28.0 °F 52% 30.07 in 10.0 mi NW 10.4 mph 23.0 mph N/A   Partly Cloudy
4:52 PM 45.0 °F 37.6 °F 28.0 °F 52% 30.11 in 10.0 mi NNW 17.3 mph 24.2 mph N/A   Clear
5:52 PM 41.0 °F 39.0 °F 28.0 °F 60% 30.14 in 10.0 mi NW 3.5 mph - N/A   Clear
6:52 PM 37.9 °F - 28.9 °F 70% 30.17 in 10.0 mi Calm Calm - N/A   Clear
7:52 PM 32.0 °F - 30.9 °F 96% 30.19 in 10.0 mi Calm Calm - N/A   Clear
8:52 PM 28.9 °F - 28.0 °F 96% 30.23 in 10.0 mi Calm Calm - N/A   Clear
9:52 PM 28.9 °F - 27.0 °F 92% 30.25 in 10.0 mi Calm Calm - N/A   Clear
10:52 PM 27.0 °F - 26.1 °F 96% 30.27 in 10.0 mi Calm Calm - N/A   Clear
11:52 PM 27.0 °F - 26.1 °F 96% 30.29 in 10.0 mi Calm Calm - N/A   Clear